[[{"header":{"parameterUnit":"m.s-1","parameterCategory":1,"la1":30.2991,"la2":30.254,"lo1":-89.0895,"lo2":-89.0444,"dy":0.0017,"dx":0.0017,"nx":28,"ny":28,"refTime":"2024-05-31T09:00:00:Z","depth":0,"parameterNumber":2,"parameterNumberName":"U-component_of_WINDS"},"data":[0,0,0,0,0,0,0,0,0,0,0,0,0,0,0,0,0,0,0,0,0,0,0,0,0,0,0,0,0,0,0,0,0,0,0,0,0,0,0,0,0,0,0,0,0,0,0,0,0,0,0,0,0,0,0,0,0,0,-3.1585,-3.1585,0,-3.1627,-3.1628,-3.1628,-3.16,-3.1599,-3.1598,-3.1596,-3.1639,-3.1641,-3.1643,0,0,0,0,0,0,0,0,0,0,0,0,0,-3.1476,-3.1479,-3.1585,-3.1585,-3.1586,-3.1627,-3.1628,-3.1629,-3.16,-3.1599,-3.1597,-3.1596,-3.1638,-3.1641,-3.1643,0,0,0,0,0,0,0,0,0,0,0,0,0,-3.1522,-3.1479,-3.1584,-3.1577,-3.1576,-3.1627,-3.1628,-3.1629,-3.1601,-3.1599,-3.1597,-3.1595,-3.1637,-3.164,-3.1644,-3.1704,0,0,-3.1655,-3.1656,0,0,0,0,0,0,0,0,-3.1519,-3.1526,-3.1577,-3.1577,-3.1577,-3.1607,-3.1605,-3.1654,-3.1601,-3.1591,-3.1596,-3.1594,-3.1629,-3.1633,-3.1646,-3.1706,-3.1708,-3.1655,-3.1657,-3.1659,-3.166,0,0,0,0,0,0,0,-3.1516,-3.1524,-3.1601,-3.1578,-3.1578,-3.157,-3.1575,-3.1614,-3.1621,-3.1592,-3.159,-3.1596,-3.1629,-3.1642,-3.1646,-3.1709,-3.1655,-3.1658,-3.166,-3.1661,-3.1819,-3.1821,0,0,0,0,0,0,-3.1514,-3.1521,-3.16,-3.1603,-3.1543,-3.1574,-3.1579,-3.1599,-3.162,-3.1622,-3.1597,-3.1594,-3.1637,-3.1642,-3.1648,-3.1718,-3.1658,-3.1662,-3.1664,-3.1817,-3.182,-3.1822,0,0,0,0,0,0,-3.1512,-3.1521,-3.1598,-3.1562,-3.1571,-3.1578,-3.1601,-3.1601,-3.1614,-3.1624,-3.1625,-3.161,-3.1636,-3.1643,-3.169,-3.1719,-3.1663,-3.1667,-3.1815,-3.1818,-3.1821,-3.1861,0,0,0,0,0,0,-3.1509,-3.1521,-3.1544,-3.1562,-3.1573,-3.1641,-3.1603,-3.1603,-3.162,-3.1617,-3.1636,-3.1638,-3.1635,-3.1685,-3.1694,-3.1723,-3.1669,-3.1812,-3.1816,-3.182,-3.1857,-3.1865,-3.1872,0,0,0,0,0,-3.1505,-3.1553,-3.1545,-3.1555,-3.1602,-3.1642,-3.1648,-3.1645,-3.1623,-3.1646,-3.1652,-3.1637,-3.1716,-3.169,-3.17,-3.1731,-3.181,-3.1815,-3.182,-3.1853,-3.1863,-3.1871,0,0,0,0,0,0,-3.1538,-3.1556,-3.1547,-3.1603,-3.1621,-3.1638,-3.1666,-3.1656,-3.168,-3.1676,-3.167,-3.1675,-3.1724,-3.1732,-3.1704,-3.1789,-3.1759,-3.1766,-3.1782,-3.1791,-3.1798,-3.1794,-3.1672,0,0,0,0,0,-3.1552,-3.1583,-3.1597,-3.1645,-3.1655,-3.1659,-3.1677,-3.1673,-3.1691,-3.1699,-3.1708,-3.1727,-3.1755,-3.1774,-3.1801,-3.1859,-3.1861,-3.1885,-3.1892,-3.1898,-3.1903,-3.1932,-3.1942,-3.1838,-3.1838,-3.1837,0,0,-3.1581,-3.1594,-3.1614,-3.1652,-3.1666,-3.1698,-3.1666,-3.1701,-3.1724,-3.1704,-3.1748,-3.1757,-3.1776,-3.1829,-3.1852,-3.1837,-3.1933,-3.1904,-3.1909,-3.1911,-3.1938,-3.1948,-3.1957,-3.1841,-3.184,-3.184,0,0,-3.1649,-3.1663,-3.1704,-3.1718,-3.174,-3.1742,-3.1752,-3.177,-3.1775,-3.182,-3.1805,-3.1832,-3.1882,-3.1896,-3.191,-3.1984,-3.1969,-3.1993,-3.2031,-3.2059,-3.2067,-3.2075,-3.2099,-3.2108,-3.1999,-3.1999,-3.1999,0,-3.1681,-3.1729,-3.1726,-3.1762,-3.1778,-3.1762,-3.1802,-3.1817,-3.1846,-3.1857,-3.1841,-3.1902,-3.1914,-3.1969,-3.1987,-3.1999,-3.2009,-3.1989,-3.2067,-3.2074,-3.2081,-3.2103,-3.2113,-3.2001,-3.2001,-3.2001,-3.2,0,-3.1767,-3.18,-3.1831,-3.1859,-3.1879,-3.1917,-3.1919,-3.194,-3.1935,-3.1939,-3.1984,-3.1999,-3.2027,-3.2041,-3.2036,-3.2094,-3.2084,-3.2068,-3.2036,-3.2093,-3.2114,-3.2123,-3.2005,-3.2004,-3.2003,-3.2002,0,0,-3.1855,-3.1882,-3.1893,-3.1905,-3.1927,-3.1953,-3.199,-3.2018,-3.2035,-3.2056,-3.2086,-3.2129,-3.2113,-3.2129,-3.2126,-3.2151,-3.2206,-3.2131,-3.2131,-3.2142,-3.2269,-3.2279,-3.2289,-3.2198,-3.22,-3.2201,-3.2266,0,-3.1923,-3.1987,-3.1986,-3.2046,-3.2075,-3.2061,-3.2093,-3.211,-3.2115,-3.214,-3.2146,-3.2175,-3.2154,-3.2163,-3.2188,-3.2194,-3.2231,-3.219,-3.2224,-3.2225,-3.2216,-3.2301,-3.2312,-3.2373,-3.2275,-3.2276,-3.2277,0,-3.201,-3.2033,-3.2096,-3.2113,-3.2125,-3.2154,-3.218,-3.2205,-3.2223,-3.2225,-3.2243,-3.2236,-3.2272,-3.2243,-3.2292,-3.2264,-3.2278,-3.2284,-3.2286,-3.2287,-3.2252,-3.2301,-3.2392,-3.24,-3.2291,-3.229,-3.2289,0,-3.2065,-3.2112,-3.2155,-3.2167,-3.2188,-3.2209,-3.2219,-3.2235,-3.2252,-3.2275,-3.2285,-3.2312,-3.2326,-3.2346,-3.2346,-3.2325,-3.2395,-3.2366,-3.2396,-3.2396,-3.241,-3.2408,-3.2501,-3.2423,-3.2423,-3.2423,-3.2423,0,-3.2138,-3.2177,-3.218,-3.2206,-3.2249,-3.2247,-3.2288,-3.2296,-3.2311,-3.2338,-3.2328,-3.2353,-3.2352,-3.2378,-3.2378,-3.2418,-3.2425,-3.2426,-3.2425,-3.2426,-3.2425,-3.2433,-3.2428,-3.2426,-3.2425,-3.2425,-3.2424,0,-3.2206,-3.221,-3.2256,-3.2273,-3.2278,-3.2308,-3.2322,-3.2347,-3.2351,-3.2385,-3.2393,-3.24,-3.2429,-3.2432,-3.2466,-3.2466,-3.2514,-3.2509,-3.2507,-3.2505,-3.2534,-3.2531,-3.2634,-3.2646,-3.2562,-3.2563,-3.2564,0,-3.2252,-3.2281,-3.2301,-3.2318,-3.2329,-3.2357,-3.2374,-3.2374,-3.2392,-3.2415,-3.2436,-3.2465,-3.2488,-3.2535,-3.2543,-3.2569,-3.2563,-3.2598,-3.2567,-3.2566,-3.2561,-3.2558,-3.256,-3.2603,-3.2604,-3.2605,-3.2605,0,-3.2331,-3.2332,-3.2357,-3.2383,-3.2404,-3.2424,-3.2443,-3.2458,-3.2459,-3.248,-3.251,-3.2528,-3.2563,-3.259,-3.2616,-3.2625,-3.2615,-3.2615,-3.2623,-3.2622,-3.2619,-3.2619,-3.252,-3.2612,-3.2612,-3.2611,-3.2611,-3.261,-3.2388,-3.2412,-3.243,-3.2458,-3.2472,-3.249,-3.2513,-3.2521,-3.2546,-3.2574,-3.2572,-3.2605,-3.2622,-3.2655,-3.2667,-3.2692,-3.268,-3.2692,-3.2694,-3.2697,-3.2699,-3.2617,-3.2697,-3.2696,-3.2696,-3.2696,-3.2696,0,-3.2465,-3.2475,-3.2501,-3.2528,-3.255,-3.254,-3.256,-3.2578,-3.2607,-3.2625,-3.2647,-3.2681,-3.2708,-3.2718,-3.2744,-3.2762,-3.2758,-3.2768,-3.2766,-3.2768,-3.2709,-3.2698,-3.2771,-3.2771,-3.2771,-3.2771,-3.2771,-3.2771,-3.2507,-3.2547,-3.255,-3.2597,-3.2607,-3.2639,-3.2651,-3.2667,-3.268,-3.2718,-3.2741,-3.2747,-3.2761,-3.2788,-3.2812,-3.2814,-3.2823,-3.2835,-3.2835,-3.278,-3.2772,-3.2765,-3.2754,-3.2838,-3.2838,-3.2892,-3.2892,-3.2892]},{"header":{"parameterUnit":"m.s-1","parameterCategory":1,"la1":30.2991,"la2":30.254,"lo1":-89.0895,"lo2":-89.0444,"dy":0.0017,"dx":0.0017,"nx":28,"ny":28,"refTime":"2024-05-31T09:00:00:Z","depth":0,"parameterNumber":3,"parameterNumberName":"V-component_of_WINDS"},"data":[0,0,0,0,0,0,0,0,0,0,0,0,0,0,0,0,0,0,0,0,0,0,0,0,0,0,0,0,0,0,0,0,0,0,0,0,0,0,0,0,0,0,0,0,0,0,0,0,0,0,0,0,0,0,0,0,0,0,3.9612,3.9613,0,3.9683,3.9683,3.9684,3.9638,3.9636,3.9634,3.9632,3.9701,3.9705,3.9708,0,0,0,0,0,0,0,0,0,0,0,0,0,3.9434,3.9437,3.9612,3.9613,3.9614,3.9683,3.9684,3.9684,3.9638,3.9636,3.9633,3.9631,3.97,3.9704,3.9709,0,0,0,0,0,0,0,0,0,0,0,0,0,3.9508,3.9438,3.9612,3.9599,3.9599,3.9682,3.9684,3.9685,3.9639,3.9636,3.9633,3.963,3.9698,3.9704,3.9709,3.9808,0,0,3.9727,3.9729,0,0,0,0,0,0,0,0,3.9504,3.9515,3.96,3.96,3.96,3.9648,3.9646,3.9726,3.964,3.9624,3.9632,3.9628,3.9686,3.9692,3.9713,3.9812,3.9815,3.9727,3.9731,3.9733,3.9735,0,0,0,0,0,0,0,3.9499,3.9512,3.964,3.9601,3.9601,3.9589,3.9596,3.9661,3.9672,3.9625,3.9622,3.9631,3.9685,3.9707,3.9714,3.9816,3.9727,3.9732,3.9736,3.9738,3.9999,4.0002,0,0,0,0,0,0,3.9495,3.9508,3.9637,3.9642,3.9543,3.9595,3.9603,3.9636,3.9671,3.9673,3.9633,3.9628,3.9699,3.9707,3.9716,3.9833,3.9733,3.9739,3.9742,3.9995,4.0,4.0003,0,0,0,0,0,0,3.9492,3.9507,3.9635,3.9574,3.9589,3.9601,3.9639,3.9639,3.9661,3.9677,3.9679,3.9654,3.9697,3.9708,3.9786,3.9835,3.9741,3.9746,3.9991,3.9997,4.0001,4.0069,0,0,0,0,0,0,3.9487,3.9506,3.9545,3.9575,3.9593,3.9704,3.9642,3.9643,3.9671,3.9665,3.9697,3.9699,3.9695,3.9778,3.9792,3.9841,3.9751,3.9987,3.9994,4.0,4.0063,4.0076,4.0088,0,0,0,0,0,3.9481,3.9561,3.9547,3.9563,3.9641,3.9707,3.9717,3.9712,3.9676,3.9714,3.9724,3.9698,3.9828,3.9786,3.9801,3.9854,3.9984,3.9992,3.9999,4.0057,4.0074,4.0088,0,0,0,0,0,0,3.9535,3.9564,3.955,3.9642,3.9673,3.97,3.9747,3.9729,3.977,3.9763,3.9753,3.9761,3.9842,3.9856,3.9808,3.9951,3.99,3.9911,3.9939,3.9955,3.9967,3.9961,3.9756,0,0,0,0,0,3.9558,3.961,3.9633,3.9712,3.9728,3.9736,3.9764,3.9757,3.9788,3.98,3.9817,3.9847,3.9894,3.9925,3.997,4.0065,4.0071,4.0109,4.0121,4.0131,4.0141,4.0191,4.0208,4.0029,4.0029,4.0029,0,0,3.9605,3.9628,3.9661,3.9723,3.9746,3.9799,3.9747,3.9805,3.9844,3.9809,3.9883,3.9897,3.9929,4.0016,4.0055,4.003,4.0192,4.0141,4.015,4.0153,4.0201,4.0218,4.0233,4.0034,4.0033,4.0033,0,0,3.9718,3.9741,3.9809,3.9834,3.9869,3.9874,3.989,3.992,3.9928,4.0003,3.9977,4.0023,4.0105,4.0129,4.0153,4.0276,4.0253,4.029,4.0355,4.0405,4.0419,4.0431,4.0474,4.0489,4.03,4.03,4.03,0,3.9772,3.9852,3.9846,3.9907,3.9935,3.9907,3.9975,3.9999,4.0047,4.0066,4.0038,4.014,4.016,4.0252,4.0282,4.0302,4.032,4.0286,4.0417,4.043,4.0441,4.0482,4.0498,4.0304,4.0304,4.0304,4.0303,0,3.9916,3.9972,4.0022,4.0071,4.0104,4.0169,4.0172,4.0206,4.0197,4.0204,4.028,4.0304,4.0352,4.0374,4.0365,4.0464,4.0447,4.0419,4.0367,4.0463,4.05,4.0516,4.0311,4.0309,4.0308,4.0307,0,0,4.0063,4.0109,4.0127,4.0148,4.0186,4.0229,4.0291,4.034,4.0369,4.0404,4.0455,4.0525,4.0499,4.0525,4.0519,4.0563,4.0657,4.0528,4.0529,4.055,4.0767,4.0787,4.0805,4.0643,4.0646,4.0648,4.0763,0,4.0178,4.0288,4.0285,4.0387,4.0438,4.0413,4.0467,4.0495,4.0504,4.0548,4.0557,4.0606,4.0569,4.0584,4.0626,4.0637,4.07,4.0629,4.0689,4.0691,4.068,4.0825,4.0847,4.0954,4.0778,4.0781,4.0783,0,4.0325,4.0366,4.0473,4.0503,4.0524,4.0573,4.0617,4.066,4.0692,4.0695,4.0725,4.0711,4.0774,4.0722,4.0807,4.0758,4.0783,4.0792,4.0796,4.08,4.0742,4.0832,4.0989,4.1004,4.0806,4.0804,4.0803,0,4.0421,4.0502,4.0576,4.0596,4.0633,4.0668,4.0685,4.0713,4.0742,4.0781,4.0799,4.0844,4.0869,4.0903,4.0902,4.0865,4.0988,4.0936,4.0991,4.0991,4.1017,4.1015,4.1178,4.1036,4.1035,4.1035,4.1035,0,4.0548,4.0614,4.062,4.0665,4.0739,4.0734,4.0807,4.082,4.0846,4.0893,4.0874,4.0918,4.0915,4.0959,4.0959,4.1029,4.104,4.1043,4.1042,4.1044,4.1044,4.1059,4.1051,4.1039,4.1038,4.1037,4.1037,0,4.0666,4.0673,4.0752,4.0781,4.079,4.0842,4.0867,4.091,4.0917,4.0977,4.099,4.1001,4.1053,4.1056,4.1115,4.1114,4.1199,4.119,4.1189,4.1187,4.1241,4.1235,4.1419,4.1442,4.1285,4.1287,4.1288,0,4.0746,4.0796,4.0831,4.0862,4.0881,4.093,4.096,4.0958,4.099,4.103,4.1068,4.1118,4.1157,4.1241,4.1253,4.1298,4.129,4.1351,4.1296,4.1297,4.1289,4.1285,4.129,4.1361,4.1363,4.1364,4.1365,0,4.0886,4.0887,4.0932,4.0978,4.1014,4.105,4.1083,4.1109,4.1111,4.1147,4.12,4.1231,4.1292,4.1342,4.1386,4.1402,4.1384,4.1383,4.1398,4.1399,4.1396,4.1397,4.1216,4.1378,4.1377,4.1376,4.1375,4.1375,4.0987,4.103,4.1062,4.1112,4.1137,4.1168,4.121,4.1223,4.1267,4.1317,4.1313,4.1371,4.1401,4.1459,4.1479,4.1523,4.1502,4.1524,4.1529,4.1534,4.154,4.139,4.1532,4.1531,4.1531,4.1531,4.153,0,4.1125,4.1144,4.1191,4.1238,4.1277,4.1258,4.1294,4.1328,4.138,4.141,4.145,4.151,4.1558,4.1575,4.1621,4.1654,4.1647,4.1666,4.1663,4.1667,4.1556,4.1538,4.1671,4.1671,4.1671,4.1671,4.1671,4.1671,4.1202,4.1274,4.1279,4.1363,4.1381,4.1439,4.1461,4.149,4.1513,4.1582,4.1622,4.1633,4.1658,4.1706,4.1749,4.1752,4.1769,4.1792,4.1792,4.1689,4.1674,4.1661,4.1644,4.1796,4.1796,4.1898,4.1899,4.19]}]]